GW5272 Weather Reports


Display with metric or nautical units.
time (UTC)temp
F
wind
direction
speed
MPH
gust
MPH
rain 1hr
in
rain 24hr
in
rain mn
in
humidity
%
barometer
mb
20260510081346 46 222 0.0 0.0 0.00 0.00 0.00 96 1015.1
20260510080843 47 241 0.0 1.0 0.00 0.00 0.00 96 1015.1
20260510080336 46 190 1.0 2.0 0.00 0.00 0.00 97 1015.1
20260510075834 46 222 0.0 0.0 0.00 0.00 0.00 97 1015.3
20260510075332 46 220 0.0 0.0 0.00 0.00 0.00 97 1015.2
20260510074828 46 230 0.0 0.0 0.00 0.00 0.00 96 1015.1
20260510074325 46 228 0.0 0.0 0.00 0.00 0.00 96 1015.1
20260510073821 47 241 0.0 0.0 0.00 0.00 0.00 96 1015.3
20260510073317 47 217 0.0 0.0 0.00 0.00 0.00 95 1014.9
20260510072813 47 243 0.0 0.0 0.00 0.00 0.00 95 1015.1
20260510072310 48 263 0.0 0.0 0.00 0.00 0.00 95 1015.1
20260510071807 49 216 0.0 0.0 0.00 0.00 0.00 95 1015.0
20260510071303 49 214 0.0 1.0 0.00 0.00 0.00 95 1015.0
20260510070802 49 239 1.0 2.0 0.00 0.00 0.00 93 1015.1
20260510070259 47 250 1.0 2.0 0.00 0.00 0.00 95 1015.0
20260510065758 46 231 0.0 0.0 0.00 0.00 0.00 96 1015.0
20260510065255 46 233 0.0 0.0 0.00 0.00 0.00 96 1015.0
20260510064752 46 239 0.0 0.0 0.00 0.00 0.00 95 1015.0
20260510064250 46 228 0.0 0.0 0.00 0.00 0.00 94 1014.9
20260510063745 47 247 0.0 0.0 0.00 0.00 0.00 94 1015.1
20260510063242 47 241 1.0 3.0 0.00 0.00 0.00 94 1014.9
20260510062739 47 186 0.0 1.0 0.00 0.00 0.00 93 1014.9
20260510062235 48 268 1.0 2.0 0.00 0.00 0.00 93 1014.9
20260510061730 48 241 0.0 0.0 0.00 0.00 0.00 92 1015.0
20260510061228 49 256 0.0 1.0 0.00 0.00 0.00 91 1015.0
20260510060724 48 204 0.0 2.0 0.00 0.00 0.00 92 1014.9
20260510060220 48 249 0.0 2.0 0.00 0.00 0.00 91 1015.1
20260510055717 49 247 0.0 1.0 0.00 0.00 0.00 92 1015.3
20260510055216 49 233 0.0 1.0 0.00 0.00 0.00 91 1015.1
20260510054716 49 236 0.0 0.0 0.00 0.00 0.00 91 1015.2
20260510054212 49 238 2.0 2.0 0.00 0.00 0.00 90 1015.2
20260510053711 49 230 1.0 3.0 0.00 0.00 0.00 90 1015.4
20260510053208 49 267 1.0 2.0 0.00 0.00 0.00 91 1015.4
20260510052704 50 266 1.0 2.0 0.00 0.00 0.00 89 1015.3
20260510052200 49 227 0.0 2.0 0.00 0.00 0.00 90 1015.6
20260510051656 49 227 0.0 2.0 0.00 0.00 0.00 90 1015.6
20260510051153 49 256 0.0 0.0 0.00 0.00 0.00 91 1015.4
20260510050650 49 266 0.0 0.0 0.00 0.00 0.00 91 1015.6
20260510050147 49 237 0.0 0.0 0.00 0.00 0.00 91 1015.4
20260510045643 48 226 0.0 0.0 0.00 0.00 0.00 92 1015.6
20260510045140 49 254 0.0 0.0 0.00 0.00 0.00 90 1015.4
20260510044636 49 254 0.0 0.0 0.00 0.00 0.00 91 1015.3
20260510044134 47 236 1.0 3.0 0.00 0.00 0.00 93 1015.6
20260510043630 47 258 0.0 0.0 0.00 0.00 0.00 95 1015.1
20260510043126 46 230 0.0 0.0 0.00 0.00 0.00 96 1015.2
20260510042624 46 227 0.0 0.0 0.00 0.00 0.00 95 1015.2
20260510042119 46 231 0.0 0.0 0.00 0.00 0.00 95 1015.1
20260510041617 46 250 0.0 0.0 0.00 0.00 0.00 95 1015.1
20260510041114 46 272 0.0 0.0 0.00 0.00 0.00 95 1015.0
20260510040611 46 224 0.0 0.0 0.00 0.00 0.00 95 1015.0
20260510040107 46 226 0.0 0.0 0.00 0.00 0.00 95 1015.0
20260510035604 46 238 0.0 0.0 0.00 0.00 0.00 94 1014.8
20260510035104 47 244 0.0 0.0 0.00 0.00 0.00 94 1014.9
20260510034602 46 272 0.0 0.0 0.00 0.00 0.00 94 1014.9
20260510034058 46 273 0.0 0.0 0.00 0.00 0.00 94 1014.9
20260510033555 46 273 0.0 0.0 0.00 0.00 0.00 94 1014.7
20260510033052 46 250 0.0 0.0 0.00 0.00 0.00 94 1014.7
20260510032549 47 226 0.0 0.0 0.00 0.00 0.00 94 1014.8
20260510032044 46 229 0.0 0.0 0.00 0.00 0.00 94 1014.7
20260510031544 46 230 0.0 0.0 0.00 0.00 0.00 94 1014.9
20260510031041 46 233 0.0 0.0 0.00 0.00 0.00 93 1014.9
20260510030536 46 200 0.0 0.0 0.00 0.00 0.00 92 1014.8
20260510030034 47 200 0.0 0.0 0.00 0.00 0.00 92 1014.8
20260510025531 47 30 0.0 0.0 0.00 0.00 0.00 92 1014.8
20260510025029 47 30 0.0 0.0 0.00 0.00 0.00 91 1014.8
20260510024525 47 59 0.0 0.0 0.00 0.00 0.00 91 1014.7
20260510024021 48 118 0.0 0.0 0.00 0.00 0.00 91 1014.6
20260510023517 47 256 0.0 0.0 0.00 0.00 0.00 91 1014.8
20260510023015 48 264 0.0 0.0 0.00 0.00 0.00 90 1014.7
20260510022514 48 256 0.0 0.0 0.00 0.00 0.00 90 1014.6
20260510022014 48 209 0.0 0.0 0.00 0.00 0.00 89 1014.6
20260510021511 49 194 0.0 0.0 0.00 0.00 0.00 89 1014.4
20260510021008 49 205 0.0 0.0 0.00 0.00 0.00 89 1014.3
20260510020502 49 250 0.0 0.0 0.00 0.00 0.00 89 1014.3
20260510015958 49 202 0.0 0.0 0.00 0.00 0.00 89 1014.3
20260510015454 49 159 0.0 0.0 0.00 0.00 0.00 87 1014.3
20260510014949 50 159 0.0 0.0 0.00 0.00 0.00 86 1014.4
20260510014447 51 157 0.0 0.0 0.00 0.00 0.00 85 1014.2
20260510013944 51 211 0.0 0.0 0.00 0.00 0.00 83 1014.0
20260510013444 52 242 0.0 0.0 0.00 0.00 0.00 83 1013.7
20260510012940 52 236 0.0 0.0 0.00 0.00 0.00 83 1013.7
20260510012435 52 241 0.0 0.0 0.00 0.00 0.00 83 1013.6
20260510011930 52 243 0.0 0.0 0.00 0.00 0.00 83 1013.7
20260510011425 52 251 0.0 0.0 0.00 0.00 0.00 82 1013.4
20260510010921 53 238 0.0 0.0 0.00 0.00 0.00 80 1013.3
20260510010419 53 230 0.0 0.0 0.00 0.00 0.00 79 1013.2
20260510005915 54 246 0.0 0.0 0.00 0.00 0.00 77 1013.2
20260510005412 54 234 0.0 0.0 0.00 0.00 0.00 77 1013.0
20260510004909 54 201 0.0 0.0 0.00 0.00 0.00 77 1013.1
20260510004407 55 261 0.0 0.0 0.00 0.00 0.00 76 1012.8
20260510003904 55 253 0.0 0.0 0.00 0.00 0.00 76 1012.6
20260510003401 56 244 0.0 0.0 0.00 0.00 0.00 74 1012.7
20260510002900 56 251 0.0 0.0 0.00 0.00 0.00 73 1012.5
20260510002358 56 225 0.0 0.0 0.00 0.00 0.00 74 1012.4
20260510001854 56 245 0.0 0.0 0.00 0.00 0.00 73 1012.6
20260510001352 57 217 0.0 0.0 0.00 0.00 0.00 73 1012.4
20260510000848 58 231 0.0 0.0 0.00 0.00 0.00 72 1012.5
20260510000345 59 233 0.0 0.0 0.00 0.00 0.00 69 1012.4
20260509235842 59 233 0.0 0.0 0.00 0.00 0.00 69 1012.4
20260509235338 59 271 0.0 0.0 0.00 0.00 0.00 70 1012.4
20260509234834 59 277 0.0 0.0 0.00 0.00 0.00 68 1012.7
20260509234331 59 276 0.0 0.0 0.00 0.00 0.00 70 1012.4
20260509233829 60 272 0.0 1.0 0.00 0.00 0.00 68 1012.5
20260509233327 60 254 0.0 1.0 0.00 0.00 0.00 65 1012.3
20260509232822 62 275 0.0 2.0 0.00 0.00 0.00 63 1012.2
20260509232320 62 262 1.0 2.0 0.00 0.00 0.00 57 1012.4
20260509231816 63 283 2.0 2.0 0.00 0.00 0.00 57 1012.0
20260509231313 63 267 1.0 6.0 0.00 0.00 0.00 60 1012.2
20260509230811 64 273 0.0 1.0 0.00 0.00 0.00 56 1012.2
20260509230308 65 286 2.0 4.0 0.00 0.00 0.00 54 1012.4
20260509225802 65 271 1.0 3.0 0.00 0.00 0.00 51 1012.3
20260509225300 66 283 4.0 6.0 0.00 0.00 0.00 51 1012.5
20260509224755 66 212 1.0 2.0 0.00 0.00 0.00 50 1012.6
20260509224252 64 223 0.0 2.0 0.00 0.00 0.00 53 1012.6
20260509223749 64 228 0.0 2.0 0.00 0.00 0.00 52 1012.5
20260509223246 64 265 4.0 9.0 0.00 0.00 0.00 53 1012.6
20260509222743 65 187 2.0 8.0 0.00 0.00 0.00 51 1012.6
20260509222238 65 208 3.0 4.0 0.00 0.00 0.00 50 1012.5
20260509221734 66 207 4.0 8.0 0.00 0.00 0.00 50 1012.5
20260509221231 65 259 1.0 3.0 0.00 0.00 0.00 50 1012.7
20260509220726 65 263 0.0 3.0 0.00 0.00 0.00 52 1012.8
20260509220223 65 258 1.0 3.0 0.00 0.00 0.00 49 1012.6
20260509215719 65 200 0.0 3.0 0.00 0.00 0.00 50 1012.7
20260509215215 65 263 2.0 4.0 0.00 0.00 0.00 51 1012.6
20260509214713 65 263 2.0 4.0 0.00 0.00 0.00 51 1012.6
20260509214210 65 278 3.0 9.0 0.00 0.00 0.00 50 1012.6
20260509213707 65 216 4.0 7.0 0.00 0.00 0.00 50 1012.7
20260509213202 65 285 4.0 6.0 0.00 0.00 0.00 51 1012.4
20260509212700 65 158 1.0 2.0 0.00 0.00 0.00 49 1012.5
20260509212157 65 269 5.0 8.0 0.00 0.00 0.00 50 1012.3
20260509211652 65 269 5.0 8.0 0.00 0.00 0.00 50 1012.3
20260509211149 66 235 3.0 4.0 0.00 0.00 0.00 50 1012.2
20260509210646 66 258 3.0 4.0 0.00 0.00 0.00 50 1012.3
20260509210143 66 259 5.0 6.0 0.00 0.00 0.00 49 1011.9
20260509205638 66 281 4.0 6.0 0.00 0.00 0.00 49 1011.8
20260509205132 65 293 6.0 7.0 0.00 0.00 0.00 51 1011.9
20260509204629 66 284 6.0 9.0 0.00 0.00 0.00 49 1011.8
20260509204125 66 245 4.0 4.0 0.00 0.00 0.00 49 1011.8
20260509203621 66 251 1.0 6.0 0.00 0.00 0.00 48 1011.9
20260509203120 67 274 4.0 6.0 0.00 0.00 0.00 48 1011.7
20260509202620 67 280 6.0 8.0 0.00 0.00 0.00 48 1011.6
20260509202116 68 28 5.0 10.0 0.00 0.00 0.00 46 1011.5
20260509201615 67 247 2.0 8.0 0.00 0.00 0.00 47 1011.7
20260509201114 66 239 4.0 8.0 0.00 0.00 0.00 47 1011.5
20260509200615 66 228 2.0 8.0 0.00 0.00 0.00 49 1011.7
20260509200110 66 263 2.0 4.0 0.00 0.00 0.00 49 1011.5
20260509195607 66 268 3.0 9.0 0.00 0.00 0.00 46 1011.6
20260509195101 66 300 6.0 11.0 0.00 0.00 0.00 47 1011.7
20260509194601 66 290 9.0 9.0 0.00 0.00 0.00 47 1011.4
20260509194059 67 207 5.0 8.0 0.00 0.00 0.00 46 1011.5
20260509193554 68 287 5.0 9.0 0.00 0.00 0.00 44 1011.6
20260509193050 68 254 6.0 7.0 0.00 0.00 0.00 47 1011.6
20260509192547 68 158 4.0 8.0 0.00 0.00 0.00 47 1011.6
20260509192042 68 239 3.0 9.0 0.00 0.00 0.00 45 1011.4
20260509191537 67 277 2.0 6.0 0.00 0.00 0.00 45 1011.6
20260509191033 66 185 2.0 9.0 0.00 0.00 0.00 47 1011.5
20260509190530 66 287 4.0 13.0 0.00 0.00 0.00 47 1011.6
20260509190028 67 218 3.0 10.0 0.00 0.00 0.00 44 1011.7
20260509185525 66 218 2.0 7.0 0.00 0.00 0.00 46 1011.6
20260509185021 67 241 3.0 4.0 0.00 0.00 0.00 49 1011.8
20260509184520 66 175 3.0 4.0 0.00 0.00 0.00 48 1011.7
20260509184016 66 279 6.0 10.0 0.00 0.00 0.00 44 1011.6
20260509183511 66 159 1.0 4.0 0.00 0.00 0.00 48 1011.8
20260509183007 66 288 9.0 10.0 0.00 0.00 0.00 45 1011.8
20260509182504 67 250 3.0 4.0 0.00 0.00 0.00 51 1011.7
20260509182000 66 261 2.0 7.0 0.00 0.00 0.00 50 1011.6
20260509181459 65 177 4.0 8.0 0.00 0.00 0.00 52 1011.8
20260509180956 65 191 4.0 10.0 0.00 0.00 0.00 51 1011.8
20260509180451 65 307 5.0 6.0 0.00 0.00 0.00 51 1011.8
20260509175949 65 252 2.0 4.0 0.00 0.00 0.00 54 1011.9
20260509175444 65 217 2.0 7.0 0.00 0.00 0.00 53 1011.9
20260509174941 65 163 7.0 10.0 0.00 0.00 0.00 52 1012.2
20260509174437 64 219 5.0 10.0 0.00 0.00 0.00 54 1012.2
20260509173933 64 176 6.0 10.0 0.00 0.00 0.00 55 1012.0
20260509173433 65 166 4.0 8.0 0.00 0.00 0.00 56 1012.3
20260509172929 65 196 5.0 6.0 0.00 0.00 0.00 56 1012.2
20260509172427 64 278 3.0 6.0 0.00 0.00 0.00 56 1012.4
20260509171922 64 179 4.0 7.0 0.00 0.00 0.00 57 1012.3
20260509171418 63 246 2.0 3.0 0.00 0.00 0.00 57 1012.4
20260509170915 63 185 3.0 4.0 0.00 0.00 0.00 57 1012.5
20260509170410 62 213 2.0 8.0 0.00 0.00 0.00 59 1012.5
20260509165907 63 287 1.0 4.0 0.00 0.00 0.00 57 1012.5
20260509165401 62 287 2.0 6.0 0.00 0.00 0.00 57 1012.7
20260509164857 62 216 1.0 6.0 0.00 0.00 0.00 59 1012.8
20260509164353 62 236 1.0 4.0 0.00 0.00 0.00 57 1012.7
20260509163849 62 249 2.0 7.0 0.00 0.00 0.00 58 1012.7
20260509163346 62 264 4.0 4.0 0.00 0.00 0.00 59 1012.7
20260509162845 62 276 2.0 2.0 0.00 0.00 0.00 59 1012.7
20260509162344 62 207 1.0 3.0 0.00 0.00 0.00 58 1012.7
20260509161840 61 263 1.0 6.0 0.00 0.00 0.00 60 1012.7
20260509161336 61 190 0.0 0.0 0.00 0.00 0.00 59 1012.7
20260509160832 61 156 2.0 2.0 0.00 0.00 0.00 57 1012.7
20260509160329 61 206 0.0 0.0 0.00 0.00 0.00 58 1012.7
20260509155823 60 215 0.0 1.0 0.00 0.00 0.00 59 1012.5
20260509155320 60 286 2.0 4.0 0.00 0.00 0.00 58 1012.7
20260509154817 61 209 0.0 2.0 0.00 0.00 0.00 57 1012.7
20260509154313 61 177 2.0 3.0 0.00 0.00 0.00 56 1012.8
20260509153810 61 301 2.0 3.0 0.00 0.00 0.00 56 1012.8
20260509153307 60 312 1.0 4.0 0.00 0.00 0.00 56 1013.0
20260509152803 60 302 4.0 6.0 0.00 0.00 0.00 55 1012.9
20260509152259 61 317 2.0 4.0 0.00 0.00 0.00 55 1012.9
20260509151757 61 122 1.0 3.0 0.00 0.00 0.00 56 1012.9
20260509151253 61 326 3.0 4.0 0.00 0.00 0.00 58 1012.8
20260509150752 60 292 2.0 7.0 0.00 0.00 0.00 55 1012.9
20260509150249 61 257 2.0 7.0 0.00 0.00 0.00 54 1012.9
20260509145746 61 291 2.0 7.0 0.00 0.00 0.00 55 1013.0
20260509145245 61 260 4.0 4.0 0.00 0.00 0.00 54 1012.9
20260509144743 61 301 4.0 6.0 0.00 0.00 0.00 54 1012.7
20260509144239 61 190 1.0 6.0 0.00 0.00 0.00 56 1012.8
20260509143736 62 249 0.0 0.0 0.00 0.00 0.00 54 1012.6
20260509143234 61 339 2.0 4.0 0.00 0.00 0.00 53 1012.4
20260509142730 62 303 4.0 6.0 0.00 0.00 0.00 56 1012.5
20260509142226 64 357 1.0 6.0 0.00 0.00 0.00 51 1012.5
20260509141722 64 273 2.0 4.0 0.00 0.00 0.00 51 1012.4
20260509141220 62 137 3.0 8.0 0.00 0.00 0.00 52 1012.3
20260509140716 61 202 3.0 3.0 0.00 0.00 0.00 56 1012.3
20260509140213 61 293 4.0 4.0 0.00 0.00 0.00 54 1012.3
20260509135710 60 122 4.0 4.0 0.00 0.00 0.00 60 1012.2
20260509135208 59 306 0.0 0.0 0.00 0.00 0.00 63 1012.3
20260509134705 61 43 0.0 6.0 0.00 0.00 0.00 61 1012.4
20260509134202 59 142 0.0 0.0 0.00 0.00 0.00 65 1012.5
20260509133659 59 126 1.0 2.0 0.00 0.00 0.00 66 1012.6
20260509133156 59 177 0.0 0.0 0.00 0.00 0.00 61 1012.7
20260509132654 57 241 0.0 0.0 0.00 0.00 0.00 64 1012.8
20260509132153 58 70 0.0 1.0 0.00 0.00 0.00 62 1012.8
20260509131649 56 67 1.0 2.0 0.00 0.00 0.00 63 1012.9
20260509131146 55 106 0.0 0.0 0.00 0.00 0.00 65 1013.2
20260509130641 55 123 0.0 0.0 0.00 0.00 0.00 66 1013.1
20260509130138 55 135 0.0 0.0 0.00 0.00 0.00 66 1013.1
20260509125635 55 270 0.0 0.0 0.00 0.00 0.00 70 1013.2
20260509125131 54 59 0.0 0.0 0.00 0.00 0.00 68 1013.1
20260509124628 53 134 0.0 0.0 0.00 0.00 0.00 68 1012.9
20260509124125 53 125 0.0 0.0 0.00 0.00 0.00 72 1013.2
20260509123623 52 52 0.0 2.0 0.00 0.00 0.00 75 1013.2
20260509123119 52 131 1.0 2.0 0.00 0.00 0.00 76 1013.3
20260509122615 52 106 0.0 0.0 0.00 0.00 0.00 75 1013.2
20260509122113 51 151 0.0 3.0 0.00 0.00 0.00 77 1013.0
20260509121609 51 98 0.0 1.0 0.00 0.00 0.00 78 1013.2
20260509121107 51 136 0.0 1.0 0.00 0.00 0.00 78 1013.2
20260509120605 50 46 1.0 2.0 0.00 0.00 0.00 78 1013.1
20260509115559 50 35 1.0 2.0 0.00 0.00 0.00 77 1013.2
20260509115057 49 48 1.0 2.0 0.00 0.00 0.00 81 1013.2
20260509114555 49 43 2.0 3.0 0.00 0.00 0.00 81 1013.2
20260509114054 49 38 2.0 3.0 0.00 0.00 0.00 83 1013.3
20260509113552 48 62 3.0 4.0 0.00 0.00 0.00 82 1013.4
20260509113049 48 45 3.0 6.0 0.00 0.00 0.00 85 1013.3
20260509112545 49 42 3.0 4.0 0.00 0.00 0.00 85 1013.4
20260509112042 49 118 0.0 0.0 0.00 0.00 0.00 81 1013.2
20260509111540 48 126 0.0 0.0 0.00 0.00 0.00 83 1013.2
20260509111037 48 128 0.0 0.0 0.00 0.00 0.00 85 1013.1
20260509110533 48 128 0.0 0.0 0.00 0.00 0.00 85 1013.1
20260509110030 49 123 0.0 0.0 0.00 0.00 0.00 84 1013.0
20260509105529 49 130 0.0 0.0 0.00 0.00 0.00 76 1013.2
20260509105026 48 245 0.0 0.0 0.00 0.00 0.00 81 1013.1
20260509104523 47 232 0.0 0.0 0.00 0.00 0.00 84 1013.1
20260509104020 47 210 0.0 0.0 0.00 0.00 0.00 85 1013.0
20260509103518 47 210 0.0 0.0 0.00 0.00 0.00 85 1013.0
20260509103016 47 118 0.0 0.0 0.00 0.00 0.00 85 1012.9
20260509102513 47 96 0.0 0.0 0.00 0.00 0.00 86 1012.9
20260509102009 47 97 0.0 0.0 0.00 0.00 0.00 85 1013.0
20260509101506 48 78 0.0 0.0 0.00 0.00 0.00 83 1012.8
20260509101003 48 78 0.0 0.0 0.00 0.00 0.00 83 1012.8
20260509100500 48 78 0.0 0.0 0.00 0.00 0.00 83 1012.8
20260509095956 48 85 0.0 0.0 0.00 0.00 0.00 82 1012.8
20260509095453 49 103 0.0 0.0 0.00 0.00 0.00 81 1012.9
20260509094951 49 103 0.0 0.0 0.00 0.00 0.00 80 1012.9
20260509094447 49 264 0.0 0.0 0.00 0.00 0.00 79 1012.9
20260509093944 49 264 0.0 0.0 0.00 0.00 0.00 79 1012.9
20260509093442 49 232 0.0 0.0 0.00 0.00 0.00 78 1013.1
20260509092940 49 337 0.0 0.0 0.00 0.00 0.00 81 1012.9
20260509092437 50 314 0.0 0.0 0.00 0.00 0.00 78 1013.1
20260509091936 50 314 0.0 0.0 0.00 0.00 0.00 78 1013.1
20260509091432 50 248 0.0 0.0 0.00 0.00 0.00 76 1013.1
20260509090929 51 252 0.0 1.0 0.00 0.00 0.00 72 1013.2
20260509090426 51 239 0.0 0.0 0.00 0.00 0.00 71 1013.2
20260509085629 52 260 2.0 3.0 0.00 0.00 0.00 65 1013.3
20260509085124 52 260 2.0 3.0 0.00 0.00 0.00 65 1013.3
20260509084622 52 266 1.0 2.0 0.00 0.00 0.00 68 1013.2
20260509084119 51 223 0.0 0.0 0.00 0.00 0.00 67 1013.3
20260509083617 51 247 0.0 3.0 0.00 0.00 0.00 67 1013.4
20260509083113 51 234 0.0 2.0 0.00 0.00 0.00 69 1013.4
20260509082611 51 244 1.0 3.0 0.00 0.00 0.00 68 1013.3
20260509082107 51 225 0.0 2.0 0.00 0.00 0.00 70 1013.3
20260509081604 51 235 0.0 1.0 0.00 0.00 0.00 70 1013.5